Hilton Head Weather Center

Moon Phase Calendar



Online Cameras

 


      

Current Conditions in Hilton Head
10/20/2020 9:43:41 AM

72°F
Feels Like 73
Clouds
Humidity
88%
Pressure
30.18"
Wind
10.3 mph (NE)
Dew Point
68°F
UV Index
6/10 (High)
Visibility
6 mi

Hourly Forecast

Date & Time Tue, Oct 20
9:00 AM
Tue, Oct 20
10:00 AM
Tue, Oct 20
11:00 AM
Tue, Oct 20
12:00 PM
Tue, Oct 20
1:00 PM
Tue, Oct 20
2:00 PM
Tue, Oct 20
3:00 PM
Tue, Oct 20
4:00 PM
Tue, Oct 20
5:00 PM
Tue, Oct 20
6:00 PM
Tue, Oct 20
7:00 PM
Tue, Oct 20
8:00 PM
Tue, Oct 20
9:00 PM
Tue, Oct 20
10:00 PM
Tue, Oct 20
11:00 PM
Wed, Oct 21
12:00 AM
Wed, Oct 21
1:00 AM
Wed, Oct 21
2:00 AM
Wed, Oct 21
3:00 AM
Wed, Oct 21
4:00 AM
Wed, Oct 21
5:00 AM
Wed, Oct 21
6:00 AM
Wed, Oct 21
7:00 AM
Wed, Oct 21
8:00 AM
Wed, Oct 21
9:00 AM
Wed, Oct 21
10:00 AM
Wed, Oct 21
11:00 AM
Wed, Oct 21
12:00 PM
Wed, Oct 21
1:00 PM
Wed, Oct 21
2:00 PM
Wed, Oct 21
3:00 PM
Wed, Oct 21
4:00 PM
Wed, Oct 21
5:00 PM
Wed, Oct 21
6:00 PM
Wed, Oct 21
7:00 PM
Wed, Oct 21
8:00 PM
Wed, Oct 21
9:00 PM
Wed, Oct 21
10:00 PM
Wed, Oct 21
11:00 PM
Thu, Oct 22
12:00 AM
Thu, Oct 22
1:00 AM
Thu, Oct 22
2:00 AM
Thu, Oct 22
3:00 AM
Thu, Oct 22
4:00 AM
Thu, Oct 22
5:00 AM
Thu, Oct 22
6:00 AM
Thu, Oct 22
7:00 AM
Thu, Oct 22
8:00 AM
Condition
Clouds

Clouds

Clouds

Clouds

Clouds

Clouds

Rain

Rain

Rain

Rain

Clouds

Clouds

Clouds

Clouds

Clouds

Clouds

Clouds

Rain

Rain

Rain

Rain

Clouds

Clouds

Clouds

Clouds

Clouds

Rain

Rain

Rain

Rain

Clouds

Clouds

Clouds

Clouds

Clouds

Clouds

Clouds

Clouds

Clouds

Rain

Rain

Clouds

Clear

Rain

Rain

Rain

Rain

Clear
Temperature 72°F71°F73°F75°F78°F79°F80°F78°F77°F76°F74°F74°F74°F73°F73°F73°F73°F73°F73°F73°F74°F74°F74°F73°F75°F76°F78°F79°F80°F80°F79°F78°F78°F76°F74°F74°F74°F74°F74°F73°F73°F73°F73°F73°F72°F72°F72°F72°F
Feels Like 73°F73°F74°F76°F80°F81°F81°F79°F78°F78°F77°F77°F77°F77°F76°F75°F75°F76°F77°F76°F76°F76°F77°F77°F77°F79°F79°F80°F80°F79°F78°F79°F78°F76°F75°F75°F76°F76°F76°F76°F76°F76°F76°F76°F75°F75°F74°F73°F
Cloudiness 75%87%95%98%100%100%100%100%100%99%99%100%100%100%100%88%90%83%99%94%92%94%95%96%80%89%93%94%91%93%100%100%100%100%97%97%100%98%98%97%96%89%0%0%0%1%1%1%
Visibility 6 mi6 mi6 mi6 mi6 mi6 mi6 mi5 mi6 mi6 mi6 mi6 mi6 mi6 mi6 mi6 mi6 mi6 mi5 mi6 mi6 mi6 mi6 mi6 mi6 mi6 mi6 mi6 mi6 mi6 mi6 mi6 mi6 mi6 mi6 mi6 mi6 mi6 mi6 mi6 mi6 mi6 mi6 mi6 mi6 mi6 mi6 mi6 mi
Precipitation 4%3%3%0%12%23%54%71%82%88%72%72%8%1%4%15%26%32%56%56%56%56%56%56%9%20%33%53%69%73%64%52%55%36%42%50%42%39%43%47%47%48%33%37%41%41%37%37%
Humidity 88%85%81%75%73%72%71%76%82%84%87%89%90%91%92%92%91%90%89%87%86%86%88%90%88%83%78%75%72%71%72%72%73%77%82%83%82%82%84%87%88%88%89%90%91%91%89%88%
Dew Point 68°F67°F67°F67°F68°F69°F69°F70°F71°F71°F70°F71°F71°F71°F71°F71°F70°F70°F70°F69°F70°F70°F70°F70°F71°F71°F71°F70°F70°F69°F69°F69°F68°F69°F69°F69°F69°F69°F69°F70°F70°F70°F70°F70°F70°F69°F69°F68°F
Pressure 30.18"30.18"30.15"30.15"30.15"30.12"30.09"30.09"30.06"30.06"30.09"30.09"30.12"30.12"30.12"30.12"30.12"30.12"30.09"30.09"30.09"30.09"30.12"30.12"30.15"30.15"30.15"30.15"30.15"30.12"30.12"30.09"30.09"30.09"30.09"30.12"30.15"30.15"30.15"30.15"30.12"30.12"30.12"30.12"30.12"30.12"30.12"30.12"
Wind Speed 9.9 mph8.2 mph8.5 mph9.2 mph7.5 mph9.6 mph10.3 mph11.2 mph10.8 mph10.5 mph9 mph8 mph9.3 mph8.1 mph8.3 mph10.4 mph10 mph8.1 mph7.1 mph7.9 mph9.2 mph9.1 mph7.5 mph7.8 mph9.1 mph10.2 mph11.5 mph11.8 mph12 mph13.4 mph13.4 mph12 mph11.6 mph12.1 mph11.7 mph10.4 mph9.8 mph10.4 mph9.3 mph8.6 mph8.4 mph9 mph7.8 mph6.6 mph7.7 mph8.5 mph8.9 mph8.9 mph
Wind
Direction
25°
NNE
22°
NNE
24°
NNE
30°
NNE
46°
NE
64°
ENE
64°
ENE
71°
ENE
76°
ENE
75°
ENE
72°
ENE
71°
ENE
55°
NE
54°
NE
50°
NE
47°
NE
64°
ENE
77°
ENE
80°
E
90°
E
87°
E
83°
E
75°
ENE
58°
ENE
53°
NE
50°
NE
57°
ENE
73°
ENE
78°
ENE
83°
E
85°
E
82°
E
76°
ENE
75°
ENE
71°
ENE
69°
ENE
67°
ENE
65°
ENE
62°
ENE
59°
ENE
66°
ENE
72°
ENE
78°
ENE
65°
ENE
59°
ENE
57°
ENE
52°
NE
55°
NE

Daily Forecast

Date High Low Precip. Humidity
Today
Oct 20

Rain
78 °F
68 °F
92%
75%
Wednesday
Oct 21

Rain
80 °F
73 °F
73%
71%
Thursday
Oct 22

Rain
79 °F
72 °F
64%
68%
Friday
Oct 23

Rain
77 °F
71 °F
62%
73%
Saturday
Oct 24

Clear
77 °F
69 °F
14%
67%
Sunday
Oct 25

Rain
78 °F
70 °F
27%
68%
Monday
Oct 26

Rain
79 °F
72 °F
37%
73%
Tuesday
Oct 27

Clouds
79 °F
71 °F
0%
71%
Wednesday
Oct 28

Rain
80 °F
68 °F
100%
74%
Thursday
Oct 29

Rain
64 °F
57 °F
87%
51%
Friday
Oct 30

Rain
57 °F
52 °F
74%
86%
Saturday
Oct 31

Rain
65 °F
54 °F
48%
63%
Sunday
Nov 1

Clear
66 °F
54 °F
0%
47%
Monday
Nov 2

Clear
61 °F
50 °F
0%
33%
Tuesday
Nov 3

Clear
66 °F
49 °F
20%
60%
Wednesday
Nov 4

Rain
73 °F
60 °F
40%
63%


Temperature 8-14 Day Outlook



Precipitation 8-14 Day Outlook




Quick Links
Hilton Head News
Hilton Head Photos
Hilton Head Videos




About Us
Contact Us
Site Map
Search Site
Advertise With Us
   
HiltonHead.USCoast.info
THE HILTON HEAD WEBSITE

Copyright 2020, Coastal Town
Privacy    |    Legal